Wind_Speed
40 39 39 39 40 40 41 42 42 42 42 42 43 44 44 44 45 44 44 44 45 45 45 45 44 44 44 44 44 44 43 43 43 43 43 42 41 42
40 40 40 40 41 41 42 43 43 44 44 44 44 45 45 45 45 46 45 45 46 46 45 45 44 44 44 44 44 44 43 43 43 42 42 42 42 42
40 40 41 42 42 42 43 44 44 44 44 44 44 45 45 46 46 47 47 47 47 46 46 45 45 45 45 45 44 44 43 43 41 41 41 41 41 41
41 41 42 42 43 43 44 44 44 44 45 44 44 44 45 45 46 47 47 47 47 47 46 45 45 45 45 44 44 44 43 42 41 40 40 39 39 38
41 41 42 43 43 44 44 44 45 45 45 45 44 45 45 46 46 46 47 46 46 46 45 45 45 45 45 43 43 43 42 41 41 39 38 37 36 37
42 42 43 43 44 44 45 45 45 45 45 45 45 45 45 45 45 45 45 45 45 45 45 44 44 44 43 42 42 41 41 40 39 38 37 36 36 36
43 43 43 43 43 44 44 45 45 46 46 46 46 45 45 45 45 44 44 43 43 43 43 43 42 42 41 40 40 39 38 38 37 37 36 37 37 37
42 43 44 43 44 44 44 44 45 45 45 44 45 45 44 44 45 43 42 41 41 41 40 40 40 39 39 38 38 37 37 37 37 36 36 36 37 38
42 43 43 43 43 43 43 43 43 43 43 42 42 42 42 42 42 40 40 39 39 39 38 37 37 37 37 36 36 36 35 36 36 35 35 36 37 38
42 42 42 42 42 42 42 42 41 41 41 41 41 40 40 40 39 39 38 38 38 38 37 36 36 36 36 35 35 35 35 35 35 35 36 36 37 37
41 41 41 41 41 41 40 39 39 40 40 39 39 39 39 39 38 37 37 37 36 36 36 36 36 35 35 35 35 35 35 35 35 35 35 35 35 35
40 40 41 41 40 40 39 39 39 39 38 38 38 38 37 37 37 37 36 36 36 35 35 35 35 35 34 34 33 33 33 33 33 33 33 33 33 33
38 38 38 38 39 39 39 39 39 38 37 37 37 37 37 37 37 37 36 36 36 35 34 34 34 33 33 32 32 32 32 32 32 32 32 32 31 31
37 37 38 38 37 36 36 36 36 36 36 36 35 35 35 35 35 35 35 35 34 34 33 33 32 32 31 31 30 30 30 31 30 29 29 29 29 29
37 37 37 36 36 35 35 35 35 36 35 34 34 34 34 34 33 33 33 32 32 31 31 31 30 29 29 29 29 28 28 28 27 27 27 27 28 27
36 36 36 36 35 35 35 35 34 34 34 33 33 33 33 32 32 32 31 30 30 29 29 29 28 28 28 28 27 26 26 26 26 26 26 26 26 26
35 35 35 35 35 34 34 34 33 33 33 33 32 32 32 32 31 31 30 30 30 29 29 29 28 27 26 26 26 25 25 25 25 26 26 26 26 26
34 34 34 33 33 33 33 33 33 33 32 32 31 31 31 31 31 30 30 30 30 29 29 28 28 27 26 26 25 25 25 25 25 26 26 26 25 25
33 34 33 33 33 33 33 33 32 32 31 31 31 31 31 30 30 30 29 29 29 29 29 28 28 28 27 25 25 26 26 26 25 26 26 25 25 25
32 32 32 32 32 32 31 30 30 30 30 30 30 30 30 29 29 29 29 28 28 28 27 27 27 27 26 24 24 24 25 25 25 25 25 24 24 24
30 31 31 31 31 31 30 30 29 29 29 29 29 29 29 29 29 28 28 28 27 27 26 26 26 25 24 23 23 23 23 24 24 24 23 23 22 22
29 30 30 30 29 29 29 29 29 29 29 28 28 28 29 29 29 28 28 27 26 26 25 25 24 23 22 22 22 22 22 23 22 22 22 21 21 20
28 28 28 28 28 27 27 27 27 28 28 28 28 28 28 28 28 27 27 26 25 25 24 24 23 22 22 22 21 21 21 21 21 20 20 19 19 19
Wind_Direction
261 263 266 268 270 271 274 275 276 277 278 279 281 281 282 283 283 284 285 285 286 286 287 288 288 288 288 288 289 289 289 288 287 286 285 285 283 284
261 263 265 268 271 273 275 276 278 279 279 280 281 281 281 282 284 284 284 285 285 286 286 287 287 287 287 288 288 288 288 288 287 286 285 285 284 284
263 264 266 268 270 273 275 277 278 279 280 281 282 282 282 282 283 284 284 284 284 284 286 285 285 286 287 288 287 287 287 287 287 286 285 285 286 285
264 266 267 269 271 273 275 277 277 278 280 281 282 282 282 282 283 284 284 285 285 285 285 285 286 287 287 287 287 286 286 287 287 286 286 286 285 284
264 266 268 269 271 273 275 276 277 278 280 281 282 282 282 282 284 284 285 285 285 284 285 286 286 286 286 286 285 286 285 285 285 286 287 285 284 283
265 266 268 270 272 273 275 276 277 278 279 281 281 282 282 283 284 285 284 284 284 284 285 285 285 285 285 285 285 285 285 285 284 284 284 283 284 285
266 268 269 270 272 274 275 275 276 278 279 280 282 282 282 283 284 284 284 283 283 284 285 285 285 285 285 286 286 286 285 285 284 284 283 282 282 284
268 269 270 271 273 274 276 277 278 279 281 281 282 282 283 283 284 284 283 283 284 284 285 285 285 285 286 287 286 287 286 286 285 285 284 283 283 285
269 270 271 272 273 274 276 277 278 279 280 281 282 282 283 283 284 284 283 284 284 285 285 285 286 286 288 287 287 287 287 286 284 284 283 283 284 285
269 271 272 273 274 275 276 276 277 279 280 281 283 282 282 283 283 283 283 283 284 285 285 285 285 286 287 287 287 287 287 286 284 284 284 285 287 287
269 271 272 273 275 275 275 276 277 279 280 282 283 282 282 283 283 283 283 283 284 284 284 285 285 285 286 287 287 286 286 286 285 285 285 286 288 289
269 270 271 272 273 274 273 274 276 278 280 281 282 282 281 282 282 283 282 283 284 285 284 285 286 285 286 287 287 286 286 286 286 286 287 288 290 291
269 269 270 272 272 272 273 273 275 275 278 279 280 281 281 281 281 282 281 283 284 285 285 285 287 287 287 287 287 286 286 286 287 287 289 290 291 291
269 269 270 271 273 273 273 274 274 275 278 278 279 280 280 281 282 282 282 283 284 284 284 286 287 288 288 288 289 289 289 289 288 288 289 290 291 292
269 269 270 271 272 273 274 275 275 276 278 279 279 280 281 281 281 282 281 282 283 284 286 287 288 288 289 290 290 291 291 290 289 289 289 290 291 291
269 269 270 270 271 272 273 274 274 276 277 278 278 280 280 279 280 282 281 280 281 284 286 288 289 289 289 290 290 290 289 289 289 291 290 290 292 292
268 268 269 269 269 271 272 273 274 275 276 276 277 279 280 280 280 281 279 279 280 282 285 287 288 289 289 289 290 290 290 290 290 291 291 291 291 293
268 268 269 269 269 270 271 271 272 274 274 274 276 278 280 280 279 279 278 278 279 281 283 284 286 287 288 288 289 290 291 290 291 292 291 290 290 290
267 268 269 270 270 270 270 270 271 272 273 274 276 278 279 279 279 278 278 279 280 281 281 282 284 286 287 287 288 289 290 291 293 292 290 290 289 289
267 268 270 270 270 270 270 270 270 270 273 274 275 277 277 277 278 278 278 278 280 281 281 282 284 286 288 288 289 289 289 291 291 292 292 290 290 290
267 269 270 270 270 269 268 269 270 271 273 275 276 276 276 276 277 277 278 278 278 279 281 282 284 286 287 288 288 288 287 289 290 291 292 291 290 291
269 270 269 269 268 267 267 268 269 270 273 275 276 276 276 276 277 277 277 277 277 278 278 280 283 286 287 289 289 290 290 290 291 291 292 291 291 292
269 269 268 267 266 266 266 267 269 271 273 275 274 274 275 276 277 277 277 276 275 275 276 279 281 284 286 288 290 290 291 291 291 291 291 291 292 294
Height
5686 5688 5690 5691 5692 5692 5693 5693 5693 5693 5693 5692 5690 5688 5686 5685 5683 5681 5679 5677 5675 5672 5670 5667 5664 5661 5658 5656 5653 5650 5648 5646 5643 5641 5639 5637 5635 5633
5676 5678 5680 5681 5681 5682 5682 5682 5682 5682 5681 5681 5680 5677 5675 5673 5671 5670 5668 5665 5663 5661 5658 5655 5653 5650 5647 5645 5642 5639 5637 5634 5632 5629 5628 5626 5624 5622
5666 5668 5669 5670 5671 5671 5671 5671 5670 5670 5669 5669 5667 5666 5664 5662 5660 5658 5656 5653 5651 5649 5646 5644 5641 5639 5636 5633 5631 5628 5626 5623 5621 5619 5617 5615 5613 5611
5656 5658 5659 5659 5660 5660 5659 5659 5659 5658 5657 5657 5655 5654 5652 5650 5648 5645 5643 5641 5639 5636 5634 5632 5630 5627 5624 5622 5620 5617 5615 5613 5611 5609 5607 5605 5603 5601
5646 5647 5647 5648 5648 5648 5648 5647 5646 5646 5645 5644 5643 5641 5639 5637 5635 5633 5631 5628 5626 5624 5622 5620 5618 5615 5613 5611 5608 5606 5604 5602 5600 5598 5596 5594 5593 5591
5635 5636 5636 5636 5636 5636 5636 5635 5634 5634 5633 5631 5630 5628 5627 5624 5622 5621 5618 5616 5614 5612 5610 5608 5606 5604 5601 5599 5597 5595 5593 5591 5589 5588 5586 5584 5583 5581
5624 5624 5625 5625 5625 5624 5624 5623 5622 5621 5620 5618 5617 5615 5614 5612 5610 5608 5606 5604 5602 5600 5599 5597 5595 5593 5591 5588 5586 5584 5582 5580 5579 5577 5576 5574 5572 5570
5613 5613 5613 5613 5613 5612 5611 5610 5609 5608 5607 5605 5604 5603 5601 5599 5597 5595 5594 5593 5592 5590 5587 5586 5584 5582 5580 5578 5576 5574 5572 5570 5569 5567 5565 5564 5562 5560
5601 5601 5601 5601 5600 5599 5599 5598 5597 5595 5594 5593 5592 5590 5589 5587 5586 5584 5583 5581 5581 5579 5577 5576 5573 5572 5570 5568 5566 5564 5562 5560 5558 5557 5555 5553 5551 5549
5590 5589 5589 5589 5588 5587 5587 5586 5585 5584 5583 5582 5581 5579 5578 5576 5574 5573 5572 5571 5570 5569 5567 5566 5564 5562 5560 5558 5556 5554 5552 5550 5549 5547 5545 5543 5541 5539
5578 5578 5578 5577 5576 5575 5575 5575 5574 5573 5571 5570 5569 5568 5566 5565 5564 5563 5562 5561 5560 5559 5557 5555 5554 5552 5550 5548 5546 5544 5542 5540 5539 5537 5535 5533 5531 5529
5567 5566 5566 5566 5565 5564 5564 5563 5563 5562 5560 5560 5559 5558 5556 5555 5554 5553 5552 5551 5550 5549 5547 5546 5544 5542 5541 5539 5537 5535 5532 5531 5529 5527 5526 5524 5522 5520
5555 5555 5555 5554 5554 5553 5553 5552 5552 5551 5550 5549 5549 5548 5547 5546 5545 5544 5543 5542 5541 5539 5538 5536 5535 5533 5531 5530 5529 5526 5524 5522 5520 5518 5516 5514 5512 5511
5544 5544 5544 5544 5543 5543 5542 5542 5541 5540 5540 5540 5539 5538 5537 5536 5535 5534 5533 5532 5531 5530 5529 5527 5526 5524 5522 5521 5520 5518 5515 5513 5511 5510 5508 5506 5504 5502
5533 5534 5534 5533 5533 5532 5532 5531 5531 5531 5531 5530 5530 5529 5528 5527 5526 5525 5524 5524 5523 5521 5520 5519 5518 5516 5514 5513 5511 5510 5507 5505 5503 5502 5500 5498 5497 5495
5522 5523 5523 5523 5523 5522 5522 5522 5521 5521 5521 5521 5520 5519 5519 5518 5518 5517 5516 5516 5515 5514 5512 5511 5509 5508 5507 5505 5503 5501 5499 5498 5496 5494 5493 5491 5489 5487
5512 5512 5513 5513 5513 5513 5513 5513 5512 5512 5512 5512 5511 5510 5510 5510 5509 5508 5508 5508 5507 5506 5505 5503 5502 5500 5499 5498 5496 5494 5492 5491 5489 5487 5486 5484 5483 5481
5501 5502 5503 5503 5503 5503 5503 5503 5503 5503 5503 5502 5502 5502 5501 5501 5500 5500 5499 5499 5499 5498 5497 5496 5494 5493 5492 5491 5489 5487 5485 5484 5482 5481 5479 5478 5476 5474
5491 5492 5493 5493 5493 5494 5494 5494 5494 5494 5494 5493 5493 5493 5493 5492 5492 5491 5491 5491 5490 5490 5489 5488 5486 5485 5485 5484 5482 5480 5478 5477 5475 5474 5472 5470 5469 5468
5482 5482 5483 5483 5484 5484 5484 5485 5485 5485 5485 5485 5485 5484 5484 5484 5483 5483 5483 5482 5482 5481 5481 5480 5479 5478 5477 5476 5475 5473 5471 5470 5468 5467 5465 5463 5462 5461
5473 5473 5473 5474 5474 5475 5475 5476 5476 5476 5476 5476 5476 5476 5476 5475 5475 5475 5474 5474 5474 5474 5473 5472 5471 5470 5470 5469 5468 5466 5464 5463 5461 5460 5458 5457 5456 5455
5464 5464 5464 5464 5465 5466 5466 5467 5467 5467 5467 5467 5467 5467 5467 5467 5467 5466 5466 5466 5466 5466 5466 5465 5464 5464 5463 5462 5461 5459 5458 5456 5455 5453 5452 5451 5449 5448
5455 5455 5455 5456 5456 5457 5457 5458 5458 5458 5459 5459 5459 5459 5459 5459 5458 5458 5458 5458 5458 5458 5458 5458 5457 5457 5456 5455 5454 5453 5452 5450 5449 5448 5446 5444 5443 5442